COSMOS 2428

Last updated on Wed Nov 05 2025 00:02:15 GMT+0000 (Coordinated Universal Time)

1 31792U 07029A 25308.43668352 -.00000246 00000+0 -10638-3 0 9999 2 31792 70.9363 106.2938 0001854 99.5911 260.5419 14.12891367946405
UTC large
Height (km)
Speed (km/s)
/
Latitude / Longitude
Inclination (degrees)
Orbital Period (minutes)
Azimuth
Elevation
Range (km)
Doppler Factor

Next 0 passes for location: London (51.5072 / 0.1276)

Sorry there are no passes over London.